/browser/devtools/styleinspector/test/
drwxr-xr-x [up]
drwxr-xr-x browser_styleinspector_bug_677930_urls_clickable
-rw-r--r-- 2014-01-16 08:21 -0500 615 Makefile.in
-rw-r--r-- 2014-01-16 08:21 -0500 2610 browser.ini
-rw-r--r-- 2014-01-16 08:21 -0500 4076 browser_bug589375_keybindings.js
-rw-r--r-- 2014-01-16 08:21 -0500 633 browser_bug683672.html
-rw-r--r-- 2014-01-16 08:21 -0500 2070 browser_bug683672.js
-rw-r--r-- 2014-01-16 08:21 -0500 692 browser_bug705707_is_content_stylesheet.html
-rw-r--r-- 2014-01-16 08:21 -0500 4035 browser_bug705707_is_content_stylesheet.js
-rw-r--r-- 2014-01-16 08:21 -0500 426 browser_bug705707_is_content_stylesheet.xul
-rw-r--r-- 2014-01-16 08:21 -0500 115 browser_bug705707_is_content_stylesheet_imported.css
-rw-r--r-- 2014-01-16 08:21 -0500 42 browser_bug705707_is_content_stylesheet_imported2.css
-rw-r--r-- 2014-01-16 08:21 -0500 40 browser_bug705707_is_content_stylesheet_linked.css
-rw-r--r-- 2014-01-16 08:21 -0500 97 browser_bug705707_is_content_stylesheet_script.css
-rw-r--r-- 2014-01-16 08:21 -0500 32 browser_bug705707_is_content_stylesheet_xul.css
-rw-r--r-- 2014-01-16 08:21 -0500 344 browser_bug722196_identify_media_queries.html
-rw-r--r-- 2014-01-16 08:21 -0500 2423 browser_bug722196_property_view_media_queries.js
-rw-r--r-- 2014-01-16 08:21 -0500 1584 browser_bug722196_rule_view_media_queries.js
-rw-r--r-- 2014-01-16 08:21 -0500 8024 browser_bug722691_rule_view_increment.js
-rw-r--r-- 2014-01-16 08:21 -0500 6800 browser_bug726427_csstransform_tooltip.js
-rw-r--r-- 2014-01-16 08:21 -0500 10172 browser_bug765105_background_image_tooltip.js
-rw-r--r-- 2014-01-16 08:21 -0500 7367 browser_bug889638_rule_view_color_picker.js
-rw-r--r-- 2014-01-16 08:21 -0500 4478 browser_bug893965_css_property_completion_existing_property.js
-rw-r--r-- 2014-01-16 08:21 -0500 4056 browser_bug893965_css_property_completion_new_property.js
-rw-r--r-- 2014-01-16 08:21 -0500 4489 browser_bug894376_css_value_completion_existing_property_value_pair.js
-rw-r--r-- 2014-01-16 08:21 -0500 4443 browser_bug894376_css_value_completion_new_property_value_pair.js
-rw-r--r-- 2014-01-16 08:21 -0500 3735 browser_bug913014_matched_expand.js
-rw-r--r-- 2014-01-16 08:21 -0500 4265 browser_bug940500_rule_view_pick_gradient_color.js
-rw-r--r-- 2014-01-16 08:21 -0500 3966 browser_bug942297_user_property_reset.js
-rw-r--r-- 2014-01-16 08:21 -0500 2513 browser_bug946331_close_tooltip_on_new_selection.js
-rw-r--r-- 2014-01-16 08:21 -0500 2847 browser_bug_592743_specificity.js
-rw-r--r-- 2014-01-16 08:21 -0500 1862 browser_bug_692400_element_style.js
-rw-r--r-- 2014-01-16 08:21 -0500 4946 browser_computedview_734259_style_editor_link.js
-rw-r--r-- 2014-01-16 08:21 -0500 3349 browser_computedview_bug835808_keyboard_nav.js
-rw-r--r-- 2014-01-16 08:21 -0500 5204 browser_computedview_copy.js
-rw-r--r-- 2014-01-16 08:21 -0500 3490 browser_computedview_original_source_link.js
-rw-r--r-- 2014-01-16 08:21 -0500 1313 browser_csslogic_inherited.js
-rw-r--r-- 2014-01-16 08:21 -0500 4918 browser_ruleview_734259_style_editor_link.js
-rw-r--r-- 2014-01-16 08:21 -0500 2664 browser_ruleview_bug_902966_revert_value_on_ESC.js
-rw-r--r-- 2014-01-16 08:21 -0500 5669 browser_ruleview_copy.js
-rw-r--r-- 2014-01-16 08:21 -0500 2764 browser_ruleview_editor.js
-rw-r--r-- 2014-01-16 08:21 -0500 7086 browser_ruleview_editor_changedvalues.js
-rw-r--r-- 2014-01-16 08:21 -0500 1870 browser_ruleview_focus.js
-rw-r--r-- 2014-01-16 08:21 -0500 3650 browser_ruleview_inherit.js
-rw-r--r-- 2014-01-16 08:21 -0500 2877 browser_ruleview_livepreview.js
-rw-r--r-- 2014-01-16 08:21 -0500 3566 browser_ruleview_manipulation.js
-rw-r--r-- 2014-01-16 08:21 -0500 3283 browser_ruleview_original_source_link.js
-rw-r--r-- 2014-01-16 08:21 -0500 6010 browser_ruleview_override.js
-rw-r--r-- 2014-01-16 08:21 -0500 1677 browser_ruleview_pseudoelement.html
-rw-r--r-- 2014-01-16 08:21 -0500 15103 browser_ruleview_pseudoelement.js
-rw-r--r-- 2014-01-16 08:21 -0500 8596 browser_ruleview_ui.js
-rw-r--r-- 2014-01-16 08:21 -0500 7393 browser_ruleview_update.js
-rw-r--r-- 2014-01-16 08:21 -0500 2661 browser_styleinspector_bug_672744_search_filter.js
-rw-r--r-- 2014-01-16 08:21 -0500 2541 browser_styleinspector_bug_672746_default_styles.js
-rw-r--r-- 2014-01-16 08:21 -0500 962 browser_styleinspector_bug_677930_urls_clickable.html
-rw-r--r-- 2014-01-16 08:21 -0500 4366 browser_styleinspector_bug_677930_urls_clickable.js
-rw-r--r-- 2014-01-16 08:21 -0500 2706 browser_styleinspector_bug_689759_no_results_placeholder.js
-rw-r--r-- 2014-01-16 08:21 -0500 6875 head.js
-rw-r--r-- 2014-01-16 08:21 -0500 352 moz.build
-rw-r--r-- 2014-01-16 08:21 -0500 105 sourcemaps.css
-rw-r--r-- 2014-01-16 08:21 -0500 167 sourcemaps.css.map
-rw-r--r-- 2014-01-16 08:21 -0500 287 sourcemaps.html
-rw-r--r-- 2014-01-16 08:21 -0500 94 sourcemaps.scss
-rw-r--r-- 2014-01-16 08:21 -0500 580 test-image.png